Agassiz, British Columbia

6:11 AM PST on December 11, 2017 (GMT -0800)
Agassiz

Weather History for CWZA - October, 2012

Change the Weather History Date:

Saturday, October 20, 2012

  Actual Average Record
Temperature  
Mean Temperature 44 °F -  
Max Temperature 50 °F 52 °F - ()
Min Temperature 39 °F 39 °F - ()
Degree Days  
Heating Degree Days 20    
Moisture  
Dew Point 38 °F    
Average Humidity 75    
Maximum Humidity 95    
Minimum Humidity 50    
Precipitation  
Precipitation 0.11 in 0.29 in - ()
Sea Level Pressure  
Sea Level Pressure 29.82 in    
Wind  
Wind Speed 3 mph ()    
Max Wind Speed 9 mph    
Max Gust Speed 17 mph    
T = Trace of Precipitation, MM = Missing Value Source: Averaged Metar Reports

Daily Weather History Graph

Daily Weather History Graph

Search for Another Location

Airport or City:

Trip Planner

Search our weather history database for the weather conditions in past years. The results will help you decide how hot, cold, wet, or windy it might be!

Date:

Astronomy

Oct. 20, 2012 Rise Set
Actual Time 7:36 AM PDT 6:05 PM PDT
Civil Twilight 7:04 AM PDT 6:38 PM PDT
Nautical Twilight 6:27 AM PDT 7:15 PM PDT
Astronomical Twilight 5:50 AM PDT 7:52 PM PDT
Moon 1:32 PM PDT (10/20) 10:43 PM PDT (10/20)
Length of Visible Light 11h 34m
Length of Day
10h 29m
Waxing Crescent, 35% of the Moon is Illuminated
Oct 20
Waxing Crescent
Oct 21
First Quarter
Oct 29
Full
Nov 6
Last Quarter
Nov 13
New

Hourly Weather History & Observations

Time (PDT) Temp. Windchill Dew Point Humidity Pressure Visibility Wind Dir Wind Speed Gust Speed Precip Events Conditions
12:00 AM 45.1 °F - 43.5 °F 94% 29.74 in - NE 1.2 mph - N/A   Unknown
1:00 AM 45.1 °F - 43.5 °F 94% 29.74 in - NE 1.2 mph - N/A   Unknown
2:00 AM 45.0 °F - 43.5 °F 95% 29.75 in - Calm Calm - N/A   Unknown
3:00 AM 47.5 °F - 40.5 °F 77% 29.75 in - West 3.5 mph - N/A   Unknown
4:00 AM 47.5 °F - 39.0 °F 72% 29.76 in - SW 3.5 mph - N/A   Unknown
5:00 AM 47 °F - 38 °F 61% 29.78 in - West 6.9 mph - -  
6:00 AM 46.9 °F - 37.4 °F 69% 29.79 in - West 5.8 mph - N/A   Unknown
7:00 AM 46.8 °F - 36.5 °F 67% 29.80 in - WSW 5.8 mph - N/A   Unknown
8:00 AM 46.8 °F - 35.8 °F 66% 29.80 in - West 3.5 mph - N/A   Unknown
9:00 AM 46.0 °F 44.8 °F 34.9 °F 65% 29.82 in - West 3.5 mph - N/A   Unknown
10:00 AM 45.7 °F - 37.6 °F 73% 29.83 in - Calm Calm - N/A   Unknown
11:00 AM 48 °F - 38 °F 58% 29.84 in - SW 6.9 mph - -  
11:00 AM 47.8 °F - 37.8 °F 68% 29.84 in - SW 6.9 mph - N/A   Unknown
12:00 PM 48.2 °F - 35.2 °F 61% 29.85 in - WSW 9.2 mph 17.3 mph N/A   Unknown
1:00 PM 43.3 °F 40.7 °F 39.9 °F 88% 29.85 in - North 4.6 mph - N/A   Unknown
2:00 PM 46.9 °F - 40.6 °F 79% 29.85 in - NNE 1.2 mph - N/A   Unknown
3:00 PM 50.2 °F - 36.5 °F 59% 29.84 in - SW 8.1 mph - N/A   Unknown
4:00 PM 48.7 °F - 36.1 °F 62% 29.86 in - WSW 3.5 mph - N/A   Unknown
5:00 PM 48 °F - 35 °F 50% 29.85 in - West 2.3 mph - -  
5:00 PM 48.4 °F - 35.1 °F 60% 29.85 in - West 2.3 mph - N/A   Unknown
6:00 PM 45.1 °F - 38.7 °F 78% 29.84 in - ENE 1.2 mph - N/A   Unknown
7:00 PM 42.1 °F - 39.4 °F 90% 29.84 in - NE 1.2 mph - N/A   Unknown
9:00 PM 41.4 °F 39.4 °F 38.3 °F 89% 29.87 in - SW 3.5 mph - 0.03 in   Unknown
10:00 PM 39.9 °F - 38.3 °F 94% 29.87 in - Calm Calm - 0.06 in   Unknown
11:00 PM 40 °F - 38 °F 91% 29.88 in - Calm Calm - -  
11:00 PM 39.7 °F - 38.3 °F 95% 29.88 in - Calm Calm - 0.02 in   Unknown